This is the latest recevied weather packets stored in our database for station/object KM4LTG. If no packets are shown the sender has not sent any weather packets the latest 10 day(s).
| Time | Temp. | Humidity | Pressure | Rain* | Wind** | Luminosity | Snow |
|---|---|---|---|---|---|---|---|
| 1777911730 | 26.11° C | 52% | 1017.8 hPa | 0 mm | - | - | - |
| 1777911455 | 26.11° C | 53% | 1017.8 hPa | 0 mm | - | - | - |
| 1777911190 | 26.11° C | 52% | 1018 hPa | 0 mm | - | - | - |
| 1777910915 | 25.56° C | 52% | 1017.9 hPa | 0 mm | - | - | - |
| 1777910634 | 26.11° C | 53% | 1017.9 hPa | 0 mm | - | - | - |
| 1777910365 | 26.11° C | 54% | 1017.9 hPa | 0 mm | - | - | - |
| 1777909600 | 25.56° C | 56% | 1018 hPa | 0 mm | - | - | - |
| 1777909330 | 25.56° C | 56% | 1018.1 hPa | 0 mm | - | - | - |
| 1777909055 | 25.56° C | 54% | 1018 hPa | 0 mm | - | - | - |
| 1777908810 | 25° C | 57% | 1017.9 hPa | 0 mm | - | - | - |
| 1777908528 | 25° C | 57% | 1017.9 hPa | 0 mm | - | - | - |
| 1777908270 | 25° C | 57% | 1018 hPa | 0 mm | - | - | - |
| 1777907195 | 25° C | 59% | 1018.3 hPa | 0 mm | - | - | - |
| 1777906905 | 24.44° C | 61% | 1018.2 hPa | 0 mm | - | - | - |
| 1777906655 | 24.44° C | 61% | 1018.1 hPa | 0 mm | - | - | - |
| 1777906400 | 24.44° C | 62% | 1018.2 hPa | 0 mm | - | - | - |
| 1777905875 | 24.44° C | 61% | 1017.9 hPa | 0 mm | - | - | - |
| 1777905627 | 24.44° C | 61% | 1017.9 hPa | 0 mm | - | - | - |
| 1777905362 | 23.89° C | 63% | 1018.1 hPa | 0 mm | - | - | - |
| 1777904790 | 23.89° C | 63% | 1018 hPa | 0 mm | - | - | - |
| 1777904545 | 23.89° C | 63% | 1018.1 hPa | 0 mm | - | - | - |
| 1777904250 | 23.89° C | 64% | 1017.9 hPa | 0 mm | - | - | - |
| 1777904010 | 23.89° C | 64% | 1018 hPa | 0 mm | - | - | - |
| 1777903754 | 23.89° C | 65% | 1017.9 hPa | 0 mm | - | - | - |
| 1777903245 | 23.33° C | 64% | 1017.9 hPa | 0 mm | - | - | - |
* Rain latest hour (hover to see other rain measurements)
** Current wind speed in m/s (hover to see current wind gust speed)